Location: Hohe Wand Kleine Kanzel
(47.8330°N, 16.0170°E)
Time: 15:56:59
(UTC+02:00)

Vanguard 3 - Pass Details

Date: 06 August 2021
Orbit: 509 x 3260 km, 33.4° (Epoch: 27 September)

Event Time Altitude Azimuth Distance (km) Brightness Sun altitude
Rises 23:55:22 0° 275° (W) 6,834 12.2 -23.8°
Reaches altitude 10° 00:01:10 10° 264° (W) 6,050 11.7 -24.0°
Maximum altitude 00:14:23 23° 221° (SW) 5,099 10.8 -24.6°
Enters shadow 00:19:11 21° 202° (SSW) 5,156 10.7 -24.8°
